Previsão horária em Alimovskiy

Hoje, 16 Junho, Quarta-feira

Tempo Temperatura Precipitação Vento Pressão Humidade
00:00 +20°C° 0 mm 1 m/s 747 mmHg 87%
01:00 +19°C° 0 mm 1 m/s 747 mmHg 88%
02:00 +19°C° 0 mm 1 m/s 747 mmHg 89%
03:00 +19°C° 0 mm 1 m/s 747 mmHg 90%
04:00 +20°C° 0 mm 1 m/s 747 mmHg 88%
05:00 +20°C° 0 mm 1 m/s 747 mmHg 86%
06:00 +21°C° 0 mm 1 m/s 748 mmHg 85%
07:00 +22°C° 0 mm 1 m/s 748 mmHg 79%
08:00 +24°C° 0 mm 2 m/s 748 mmHg 74%
09:00 +25°C° 0 mm 2 m/s 748 mmHg 68%
10:00 +26°C° 0.1 mm 2 m/s 748 mmHg 64%
11:00 +28°C° 0.1 mm 2 m/s 749 mmHg 59%
12:00 +29°C° 0.1 mm 3 m/s 749 mmHg 54%
13:00 +29°C° 0 mm 3 m/s 749 mmHg 53%
14:00 +29°C° 0 mm 3 m/s 749 mmHg 51%
15:00 +30°C° 0 mm 2 m/s 748 mmHg 50%
16:00 +29°C° 0 mm 2 m/s 748 mmHg 52%
17:00 +29°C° 0 mm 2 m/s 748 mmHg 54%
18:00 +29°C° 0 mm 1 m/s 749 mmHg 56%
19:00 +27°C° 0 mm 2 m/s 749 mmHg 62%
20:00 +25°C° 0 mm 2 m/s 749 mmHg 68%
21:00 +24°C° 0 mm 2 m/s 749 mmHg 73%
22:00 +23°C° 0 mm 2 m/s 750 mmHg 76%
23:00 +21°C° 0 mm 2 m/s 750 mmHg 78%

Amanhã, 17 Junho, Quinta-feira

Tempo Temperatura Precipitação Vento Pressão Humidade
00:00 +21°C° 0 mm 3 m/s 750 mmHg 80%
01:00 +20°C° 0 mm 3 m/s 750 mmHg 82%
02:00 +20°C° 0 mm 3 m/s 750 mmHg 84%
03:00 +20°C° 0 mm 3 m/s 750 mmHg 86%
04:00 +20°C° 0 mm 3 m/s 750 mmHg 86%
05:00 +20°C° 0 mm 4 m/s 750 mmHg 86%
06:00 +21°C° 0 mm 4 m/s 750 mmHg 86%
07:00 +22°C° 0 mm 4 m/s 750 mmHg 80%
08:00 +23°C° 0 mm 5 m/s 751 mmHg 75%
09:00 +26°C° 0 mm 6 m/s 751 mmHg 70%
10:00 +27°C° 0 mm 6 m/s 751 mmHg 65%
11:00 +28°C° 0 mm 6 m/s 751 mmHg 61%
12:00 +29°C° 0 mm 6 m/s 751 mmHg 57%
13:00 +29°C° 0 mm 6 m/s 752 mmHg 56%
14:00 +29°C° 0 mm 6 m/s 752 mmHg 56%
15:00 +30°C° 0 mm 6 m/s 752 mmHg 55%
16:00 +29°C° 0 mm 7 m/s 752 mmHg 60%
17:00 +28°C° 0 mm 7 m/s 752 mmHg 64%
18:00 +27°C° 0 mm 8 m/s 752 mmHg 68%
19:00 +26°C° 0 mm 7 m/s 752 mmHg 70%
20:00 +23°C° 0 mm 7 m/s 753 mmHg 71%
21:00 +22°C° 0 mm 7 m/s 753 mmHg 72%
22:00 +21°C° 0 mm 7 m/s 754 mmHg 73%
23:00 +20°C° 0 mm 7 m/s 754 mmHg 73%

Depois de amanhã, 18 Junho, Sexta-feira

Tempo Temperatura Precipitação Vento Pressão Humidade
00:00 +18°C° 0 mm 7 m/s 754 mmHg 74%
01:00 +17°C° 0 mm 6 m/s 754 mmHg 75%
02:00 +17°C° 0 mm 6 m/s 755 mmHg 75%
03:00 +16°C° 0 mm 5 m/s 755 mmHg 76%
04:00 +16°C° 0 mm 5 m/s 755 mmHg 77%
05:00 +16°C° 0 mm 5 m/s 755 mmHg 78%
06:00 +16°C° 0 mm 6 m/s 756 mmHg 79%
07:00 +19°C° 0 mm 6 m/s 756 mmHg 74%
08:00 +20°C° 0 mm 6 m/s 756 mmHg 68%
09:00 +22°C° 0 mm 6 m/s 757 mmHg 63%
10:00 +23°C° 0 mm 6 m/s 757 mmHg 59%
11:00 +24°C° 0 mm 6 m/s 757 mmHg 55%
12:00 +26°C° 0 mm 6 m/s 757 mmHg 52%
13:00 +26°C° 0 mm 6 m/s 757 mmHg 50%
14:00 +26°C° 0 mm 7 m/s 757 mmHg 49%
15:00 +27°C° 0 mm 7 m/s 757 mmHg 48%
16:00 +26°C° 0 mm 6 m/s 757 mmHg 52%
17:00 +26°C° 0 mm 6 m/s 757 mmHg 55%
18:00 +24°C° 0 mm 6 m/s 757 mmHg 59%
19:00 +23°C° 0 mm 6 m/s 757 mmHg 62%
20:00 +21°C° 0 mm 5 m/s 758 mmHg 65%
21:00 +19°C° 0 mm 5 m/s 758 mmHg 68%
22:00 +19°C° 0 mm 5 m/s 758 mmHg 71%
23:00 +18°C° 0 mm 4 m/s 759 mmHg 73%

19 Junho, Sábado

Tempo Temperatura Precipitação Vento Pressão Humidade
00:00 +17°C° 0 mm 4 m/s 759 mmHg 75%
01:00 +15°C° 0 mm 4 m/s 759 mmHg 77%
02:00 +15°C° 0 mm 4 m/s 759 mmHg 78%
03:00 +14°C° 0 mm 4 m/s 759 mmHg 79%
04:00 +14°C° 0 mm 4 m/s 760 mmHg 78%
05:00 +15°C° 0 mm 4 m/s 760 mmHg 77%
06:00 +15°C° 0 mm 5 m/s 760 mmHg 77%
07:00 +17°C° 0 mm 5 m/s 760 mmHg 70%
08:00 +19°C° 0 mm 6 m/s 760 mmHg 63%
09:00 +21°C° 0 mm 6 m/s 760 mmHg 56%
10:00 +22°C° 0 mm 6 m/s 760 mmHg 53%
11:00 +23°C° 0 mm 6 m/s 760 mmHg 49%
12:00 +24°C° 0 mm 6 m/s 760 mmHg 46%
13:00 +24°C° 0 mm 6 m/s 760 mmHg 45%
14:00 +26°C° 0 mm 6 m/s 760 mmHg 44%
15:00 +26°C° 0 mm 6 m/s 759 mmHg 43%
16:00 +26°C° 0 mm 6 m/s 759 mmHg 46%
17:00 +26°C° 0 mm 5 m/s 759 mmHg 50%
18:00 +25°C° 0 mm 5 m/s 759 mmHg 54%
19:00 +22°C° 0 mm 4 m/s 759 mmHg 58%
20:00 +20°C° 0 mm 4 m/s 759 mmHg 63%
21:00 +19°C° 0 mm 3 m/s 759 mmHg 68%
22:00 +18°C° 0 mm 3 m/s 759 mmHg 69%
23:00 +17°C° 0 mm 3 m/s 759 mmHg 71%

20 Junho, Domingo

Tempo Temperatura Precipitação Vento Pressão Humidade
00:00 +17°C° 0 mm 3 m/s 759 mmHg 72%
01:00 +16°C° 0 mm 3 m/s 759 mmHg 74%
02:00 +16°C° 0 mm 3 m/s 759 mmHg 75%
03:00 +16°C° 0 mm 3 m/s 759 mmHg 77%
04:00 +16°C° 0 mm 3 m/s 759 mmHg 77%
05:00 +17°C° 0 mm 3 m/s 759 mmHg 77%
06:00 +17°C° 0 mm 3 m/s 759 mmHg 76%
07:00 +19°C° 0 mm 4 m/s 759 mmHg 70%
08:00 +21°C° 0 mm 4 m/s 759 mmHg 63%
09:00 +23°C° 0 mm 5 m/s 759 mmHg 57%
10:00 +26°C° 0 mm 5 m/s 759 mmHg 53%
11:00 +27°C° 0 mm 5 m/s 759 mmHg 49%
12:00 +28°C° 0 mm 5 m/s 759 mmHg 45%
13:00 +29°C° 0 mm 5 m/s 758 mmHg 44%
14:00 +29°C° 0 mm 5 m/s 758 mmHg 43%
15:00 +30°C° 0 mm 5 m/s 758 mmHg 42%
16:00 +29°C° 0 mm 5 m/s 757 mmHg 46%
17:00 +29°C° 0 mm 4 m/s 757 mmHg 50%
18:00 +28°C° 0 mm 4 m/s 757 mmHg 54%
19:00 +27°C° 0 mm 4 m/s 757 mmHg 59%
20:00 +25°C° 0 mm 3 m/s 757 mmHg 65%
21:00 +22°C° 0 mm 3 m/s 757 mmHg 71%
22:00 +22°C° 0 mm 3 m/s 757 mmHg 73%
23:00 +21°C° 0 mm 3 m/s 757 mmHg 75%

21 Junho, Segunda-feira

Tempo Temperatura Precipitação Vento Pressão Humidade
00:00 +20°C° 0 mm 3 m/s 757 mmHg 77%
01:00 +20°C° 0 mm 3 m/s 757 mmHg 78%
02:00 +20°C° 0 mm 3 m/s 757 mmHg 80%
03:00 +20°C° 0 mm 3 m/s 756 mmHg 81%
04:00 +20°C° 0 mm 3 m/s 756 mmHg 81%
05:00 +21°C° 0 mm 3 m/s 756 mmHg 80%
06:00 +21°C° 0 mm 3 m/s 756 mmHg 80%
07:00 +24°C° 0 mm 3 m/s 756 mmHg 74%
08:00 +26°C° 0 mm 4 m/s 756 mmHg 67%
09:00 +28°C° 0 mm 4 m/s 756 mmHg 60%
10:00 +29°C° 0 mm 4 m/s 756 mmHg 55%
11:00 +30°C° 0 mm 4 m/s 756 mmHg 51%
12:00 +32°C° 0 mm 4 m/s 756 mmHg 46%
13:00 +33°C° 0 mm 4 m/s 755 mmHg 44%
14:00 +33°C° 0 mm 4 m/s 755 mmHg 43%
15:00 +34°C° 0 mm 4 m/s 755 mmHg 41%
16:00 +33°C° 0 mm 3 m/s 754 mmHg 44%
17:00 +33°C° 0 mm 3 m/s 754 mmHg 48%
18:00 +31°C° 0 mm 3 m/s 754 mmHg 51%
19:00 +29°C° 0 mm 3 m/s 754 mmHg 56%
20:00 +28°C° 0 mm 3 m/s 754 mmHg 61%
21:00 +26°C° 0 mm 3 m/s 754 mmHg 66%
22:00 +25°C° 0 mm 3 m/s 754 mmHg 66%
23:00 +24°C° 0 mm 3 m/s 753 mmHg 67%
Mostrar mais